Minot, ND

2:01 AM CDT on October 18, 2017 (GMT -0500)
Minot International

Weather History for KMOT - November, 2012

Change the Weather History Date:

Tuesday, November 20, 2012

  Actual Average Record
Temperature  
Mean Temperature 43 °F 26 °F  
Max Temperature 49 °F 34 °F 65 °F (1908)
Min Temperature 36 °F 18 °F -19 °F (1921)
Degree Days  
Heating Degree Days 22 39  
Month to date heating degree days 705 677  
Since 1 July heating degree days 1661 1637  
Moisture  
Dew Point 31 °F    
Average Humidity 64    
Maximum Humidity 73    
Minimum Humidity 55    
Precipitation  
Precipitation 0.00 in 0.02 in 1.02 in (1977)
Month to date precipitation 0.58 0.56  
Year to date precipitation 13.53 16.62  
Sea Level Pressure  
Sea Level Pressure 29.91 in    
Wind  
Wind Speed 11 mph (SSW)    
Max Wind Speed 21 mph    
Max Gust Speed 28 mph    
Visibility 10 miles    
Events      
T = Trace of Precipitation, MM = Missing Value Source: NWS Daily Summary

Daily Weather History Graph

Daily Weather History Graph

Search for Another Location

Airport or City:

Trip Planner

Search our weather history database for the weather conditions in past years. The results will help you decide how hot, cold, wet, or windy it might be!

Date:

Astronomy

Nov. 20, 2012 Rise Set
Actual Time 8:00 AM CST 5:00 PM CST
Civil Twilight 7:25 AM CST 5:35 PM CST
Nautical Twilight 6:47 AM CST 6:13 PM CST
Astronomical Twilight 6:10 AM CST 6:50 PM CST
Moon 1:19 PM CST (11/20) No Moon Set
Length of Visible Light 10h 09m
Length of Day
9h 00m
First Quarter, 51% of the Moon is Illuminated
Nov 20
First Quarter
Nov 28
Full
Dec 6
Last Quarter
Dec 13
New
Dec 19
First Quarter

Hourly Weather History & Observations

Time (CST) Temp. Windchill Dew Point Humidity Pressure Visibility Wind Dir Wind Speed Gust Speed Precip Events Conditions
12:54 AM 39.0 °F 32.3 °F 28.0 °F 65% 30.03 in 10.0 mi SSE 10.4 mph - N/A   Clear
1:54 AM 39.0 °F 29.9 °F 28.9 °F 67% 30.01 in 10.0 mi South 17.3 mph 24.2 mph N/A   Clear
2:54 AM 41.0 °F 35.2 °F 28.0 °F 60% 29.99 in 10.0 mi South 9.2 mph 20.7 mph N/A   Clear
3:54 AM 41.0 °F 34.3 °F 28.0 °F 60% 29.97 in 10.0 mi South 11.5 mph 20.7 mph N/A   Clear
4:54 AM 41.0 °F 33.5 °F 27.0 °F 57% 29.96 in 10.0 mi SSW 13.8 mph 26.5 mph N/A   Clear
5:54 AM 41.0 °F 35.2 °F 26.1 °F 55% 29.96 in 10.0 mi SSW 9.2 mph 17.3 mph N/A   Clear
6:54 AM 41.0 °F 34.3 °F 26.1 °F 55% 29.95 in 10.0 mi SW 11.5 mph 18.4 mph N/A   Clear
7:54 AM 39.0 °F 33.4 °F 26.1 °F 60% 29.94 in 10.0 mi SSE 8.1 mph - N/A   Clear
8:54 AM 39.0 °F 29.9 °F 27.0 °F 62% 29.94 in 10.0 mi South 17.3 mph 25.3 mph N/A   Clear
9:54 AM 39.9 °F 32.9 °F 28.0 °F 63% 29.93 in 10.0 mi South 11.5 mph - N/A   Clear
10:54 AM 43.0 °F 35.4 °F 28.9 °F 58% 29.91 in 10.0 mi South 16.1 mph - N/A   Clear
11:54 AM 43.0 °F 36.4 °F 30.0 °F 60% 29.90 in 10.0 mi SSW 12.7 mph - N/A   Clear
12:54 PM 45.0 °F 38.2 °F 32.0 °F 60% 29.86 in 10.0 mi SSW 15.0 mph - N/A   Clear
1:54 PM 46.9 °F - 33.1 °F 59% 29.85 in 10.0 mi SSW 12.7 mph - N/A   Clear
2:54 PM 46.9 °F - 34.0 °F 61% 29.83 in 10.0 mi SSW 15.0 mph - N/A   Clear
3:54 PM 46.0 °F 39.9 °F 34.0 °F 63% 29.84 in 10.0 mi SSW 13.8 mph - N/A   Clear
4:54 PM 44.1 °F 40.1 °F 34.0 °F 68% 29.86 in 10.0 mi SSW 6.9 mph - N/A   Clear
5:54 PM 42.1 °F 35.7 °F 34.0 °F 73% 29.86 in 10.0 mi SW 11.5 mph - N/A   Clear
6:54 PM 41.0 °F 35.2 °F 33.1 °F 73% 29.87 in 10.0 mi SSW 9.2 mph - N/A   Clear
7:54 PM 42.1 °F 36.1 °F 33.1 °F 70% 29.86 in 10.0 mi SW 10.4 mph - N/A   Clear
8:54 PM 42.1 °F 36.6 °F 34.0 °F 73% 29.87 in 10.0 mi SW 9.2 mph - N/A   Clear
9:54 PM 42.1 °F 36.1 °F 34.0 °F 73% 29.88 in 10.0 mi SW 10.4 mph - N/A   Clear
10:54 PM 42.1 °F 36.1 °F 34.0 °F 73% 29.88 in 10.0 mi SW 10.4 mph - N/A   Clear
11:54 PM 41.0 °F - 34.0 °F 76% 29.87 in 10.0 mi Calm Calm - N/A   Clear